Showing default

COSMOS 1914, 18793

Orbit data source: Space-Track

COSMOS 1914, 18793 is a payload satellite owned by UNKS (CIS) in LEO that was launched on Fri, 15 Jan 1988 UTC via a TSIKLON-3 launch vehicle from the Plesetsk Missile And Space Complex (PKMTR). Payload-class satellites include a variety of spacecraft equipped with specific instruments for various scientific and technological missions. These include communications satellites like Starlink; space stations such as the ISS; scientific satellites like the Hubble; Earth observation satellites from companies like Planet Labs, Umbra, and HawkEye 360; GPS; miniature CubeSats for education and research; and military/defense satellites.

Loading next visibility...
Identifier
18793, 1988-002F
Orbit
LEO
Country
Flag of CISCIS
Related business
Manufacturer
NPO PM
Mission
Defense Communications
Bus & Motor
STRELA-3, Unknown motor
Mass
225 kg wet, 225 kg dry
Launch date (UTC)
1988-01-15 (38 years ago)
Launch vehicle
TSIKLON-3
Launch site
Plesetsk Missile And Space Complex (PKMTR)
Object type
Payload
Rocket body
Debris
Shape & HBR
Cyl, 0.8 m
Radar Cross Section
1.257 m², Large (>1 m²)

Expand to show TLE details & history
Last TLE update: 10 hours ago

TLE from 10 hours ago
0 COSMOS 1914
1 18793U 88002F   26036.76439366  .00000045  00000-0  17925-3 0  9993
2 18793  82.6078 297.0145 0016725 314.6451 100.4582 12.66458062759151
Epoch: 2026-02-05T18:20Z
TLE epoch observation values (Epoch: 2026-02-05T18:20:43.612Z)
Latitude
54.70201°
Longitude
-103.57279°
Altitude
1,407.76 km
Speed
7.16 km/s
True Right ascension
20h 30m 05s
True Declination
54° 33' 12"
Sunlit
Object was in daylight at epoch
Visualization orbit readout
Latitude
Unknown
Longitude
Unknown
Altitude
Unknown
Speed
Unknown
Apparent Right ascension
Unknown
Apparent Declination
Unknown
Sunlit
N/A
Visualization observer readout
Local Sidereal Time
06:09:26
Azimuth
Unknown
Elevation
Unknown
Doppler factor
Unknown
Orbital elements
Apogee altitude
1,406.714 km
Perigee altitude
1,380.717 km
Semi-major axis
7,771.852 km
Eccentricity
0.00167
Inclination
82.6078°
RAAN
297.0145°
Arg. of periapsis
314.6451°
True anomaly
100.6466°
Mean anomaly
100.4582°
Eccentric anomaly
100.55241°
Mean motion
3.16779 °/min
Orbital period
113.64 mins
BSTAR
0.00017925
Loading maneuver chart data...
Computing Atmospheric mass density...
Loading historical data...
Loading historical data...
Loading historical data...
Loading historical data...
Loading historical data...
Loading historical data...
Loading historical data...

Documentation

Showing up to 5 results
|